Weather History for KCLL - July, 2013

Change the Weather History Date:

Tuesday, July 16, 2013

  Actual Average Record
Temperature  
Mean Temperature 83 °F 85 °F  
Max Temperature 93 °F 95 °F 105 °F (2000)
Min Temperature 73 °F 75 °F 58 °F (1967)
Degree Days  
Heating Degree Days 0 0  
Month to date heating degree days 0 0  
Since 1 June heating degree days 0 0  
Since 1 July heating degree days 0 0  
Cooling Degree Days 18 20  
Month to date cooling degree days 311 309  
Year to date cooling degree days 1459 1413  
Since 1 June cooling degree days 895 825  
Growing Degree Days 32 (Base 50)    
Moisture  
Dew Point 72 °F    
Average Humidity 75    
Maximum Humidity 100    
Minimum Humidity 49    
Precipitation  
Precipitation 0.58 in 0.06 in 1.71 in (1919)
Month to date precipitation 1.37 1.24  
Year to date precipitation 18.89 21.94  
Sea Level Pressure  
Sea Level Pressure 30.07 in    
Wind  
Wind Speed 7 mph (East)    
Max Wind Speed 23 mph    
Max Gust Speed 32 mph    
Visibility 9 miles    
Events Rain , Thunderstorm    
T = Trace of Precipitation, MM = Missing Value Source: NWS Daily Summary

Daily Weather History Graph

Daily Weather History Graph

Search for Another Location

Airport or City:

Trip Planner

Search our weather history database for the weather conditions in past years. The results will help you decide how hot, cold, wet, or windy it might be!

Date:

Astronomy

Jul. 16, 2013 Rise Set
Actual Time 6:34 AM CDT 8:28 PM CDT
Civil Twilight 6:06 AM CDT 8:55 PM CDT
Nautical Twilight 5:34 AM CDT 9:28 PM CDT
Astronomical Twilight 4:59 AM CDT 10:03 PM CDT
Moon 2:20 PM CDT (7/16) 12:52 AM CDT (7/16)
Length of Visible Light 14h 48m
Length of Day
13h 54m
First Quarter, 56% of the Moon is Illuminated
Jul 16
First Quarter
Jul 22
Full
Jul 29
Last Quarter
Aug 6
New
Aug 14
First Quarter

Hourly Weather History & Observations

Time (CDT) Temp. Heat Index Dew Point Humidity Pressure Visibility Wind Dir Wind Speed Gust Speed Precip Events Conditions
12:53 AM 73.9 °F - 73.0 °F 97% 30.05 in 10.0 mi East 6.9 mph - N/A   Partly Cloudy
1:53 AM 73.9 °F - 72.0 °F 93% 30.04 in 10.0 mi East 6.9 mph - N/A   Partly Cloudy
2:53 AM 73.9 °F - 72.0 °F 93% 30.03 in 10.0 mi East 6.9 mph - N/A   Clear
3:53 AM 73.9 °F - 72.0 °F 93% 30.03 in 10.0 mi East 6.9 mph - N/A   Clear
4:53 AM 73.9 °F - 72.0 °F 93% 30.04 in 10.0 mi East 9.2 mph - N/A   Clear
5:53 AM 73.0 °F - 72.0 °F 96% 30.04 in 10.0 mi East 6.9 mph - N/A   Clear
6:53 AM 73.0 °F - 72.0 °F 96% 30.06 in 10.0 mi ENE 6.9 mph - N/A   Clear
7:38 AM 73.4 °F - 73.4 °F 100% 30.08 in 10.0 mi East 5.8 mph - N/A   Partly Cloudy
7:53 AM 73.9 °F - 73.0 °F 97% 30.07 in 10.0 mi ENE 6.9 mph - N/A   Mostly Cloudy
8:43 AM 75.2 °F - 73.4 °F 94% 30.09 in 10.0 mi East 6.9 mph - N/A   Scattered Clouds
8:53 AM 77.0 °F - 73.0 °F 88% 30.09 in 10.0 mi East 8.1 mph - N/A   Partly Cloudy
9:53 AM 80.1 °F 84.2 °F 73.0 °F 79% 30.09 in 10.0 mi East 5.8 mph - N/A   Partly Cloudy
10:53 AM 82.0 °F 87.4 °F 73.0 °F 74% 30.10 in 10.0 mi East 8.1 mph - N/A   Clear
11:45 AM 84.2 °F 90.9 °F 73.4 °F 70% 30.11 in 10.0 mi ESE 10.4 mph - N/A   Mostly Cloudy
11:53 AM 84.9 °F 90.7 °F 72.0 °F 65% 30.09 in 10.0 mi East 8.1 mph - N/A   Mostly Cloudy
12:07 PM 84.2 °F 89.6 °F 71.6 °F 66% 30.11 in 10.0 mi East 10.4 mph - N/A   Mostly Cloudy
12:53 PM 87.1 °F 92.0 °F 70.0 °F 57% 30.09 in 10.0 mi ENE 9.2 mph - N/A   Scattered Clouds
1:53 PM 88.0 °F 92.1 °F 69.1 °F 53% 30.06 in 10.0 mi East 9.2 mph - N/A   Partly Cloudy
2:53 PM 91.9 °F 96.9 °F 69.1 °F 47% 30.04 in 10.0 mi ESE 5.8 mph 19.6 mph N/A   Partly Cloudy
3:53 PM 91.0 °F 95.6 °F 69.1 °F 48% 30.02 in 10.0 mi East 11.5 mph 18.4 mph N/A   Partly Cloudy
4:53 PM 91.9 °F 97.4 °F 70.0 °F 48% 30.02 in 10.0 mi ESE 10.4 mph 16.1 mph N/A Thunderstorm Scattered Clouds
5:06 PM 78.8 °F - 73.4 °F 83% 30.06 in 1.5 mi SSW 9.2 mph 23.0 mph 0.14 in Rain , Thunderstorm Heavy Thunderstorms and Rain
5:19 PM 77.0 °F - 73.4 °F 89% 30.04 in 3.0 mi SW 16.1 mph - 0.28 in Rain , Thunderstorm Light Thunderstorms and Rain
5:30 PM 77.0 °F - 73.4 °F 89% 30.06 in 1.5 mi SSE 9.2 mph 20.7 mph 0.49 in Rain , Thunderstorm Thunderstorms and Rain
5:42 PM 77.0 °F - 73.4 °F 89% 30.05 in 3.0 mi West 6.9 mph - 0.54 in Rain , Thunderstorm Light Thunderstorms and Rain
5:53 PM 77.0 °F - 73.9 °F 90% 30.05 in 10.0 mi Calm Calm - 0.54 in Thunderstorm Thunderstorm
6:11 PM 77.0 °F - 73.4 °F 89% 30.07 in 10.0 mi Variable 3.5 mph - N/A   Mostly Cloudy
6:33 PM 75.2 °F - 71.6 °F 89% 30.09 in 10.0 mi ESE 13.8 mph 25.3 mph 0.00 in Rain Light Rain
6:53 PM 75.0 °F - 71.1 °F 87% 30.08 in 10.0 mi ESE 8.1 mph - 0.00 in Rain Light Rain
7:53 PM 75.0 °F - 72.0 °F 90% 30.09 in 10.0 mi East 5.8 mph - 0.04 in Rain Light Rain
8:53 PM 75.0 °F - 72.0 °F 90% 30.10 in 10.0 mi Calm Calm - 0.00 in Rain Light Rain
9:53 PM 75.0 °F - 73.0 °F 94% 30.11 in 10.0 mi Calm Calm - 0.00 in   Clear
10:53 PM 75.0 °F - 72.0 °F 90% 30.12 in 10.0 mi ENE 4.6 mph - N/A   Clear
11:53 PM 75.0 °F - 72.0 °F 90% 30.13 in 10.0 mi East 6.9 mph - N/A   Clear